Zurück zum Katalog

CZ-6A DEB

AktivPO
NORAD 60865·DEBRIS·🇨🇳 China

Gestartet Aug 6, 2024 von Taiyuan Satellite Launch Center

Loading…

Nächste Überflüge (nächste 24 Stunden)

TLE

AktuellSource: Space-Track

Epoche: Sep 14, 2026, 11:07 UTC

1 60865U 24140JU  26257.46365463  .00000592  00000-0  14654-3 0  9994
2 60865  88.9754 258.5672 0086695 292.2031  66.9994 14.48532837109981

Verfolge CZ-6A DEB in Echtzeit mit AllMySat

Download on the App Store